DJ3OW-13 Weather Reports


Display with metric or nautical units.
time (UTC)temp
F
wind
direction
speed
MPH
gust
MPH
rain 1hr
in
rain 24hr
in
rain mn
in
humidity
%
barometer
mb
20260904005555 62 158 0.0 2.0 0.00 0.00 0.00 89 1018.0
20260904004553 63 169 0.0 2.0 0.00 0.00 0.00 87 1017.9
20260904003551 64 180 1.0 2.0 0.00 0.00 0.00 86 1018.1
20260904002629 64 158 0.0 2.0 0.00 0.00 0.00 86 1018.2
20260904001547 64 180 0.0 2.0 0.00 0.00 0.00 85 1018.3
20260904000545 64 180 1.0 2.0 0.00 0.00 0.00 85 1018.4
20260903235543 65 180 1.0 2.0 0.00 0.00 0.00 84 1018.7
20260903234541 66 180 1.0 4.0 0.00 0.00 0.00 83 1018.7
20260903233559 65 176 1.0 4.0 0.00 0.00 0.00 84 1018.8
20260903232536 65 180 1.0 4.0 0.00 0.00 0.00 85 1018.9
20260903231635 65 176 1.0 4.0 0.00 0.00 0.00 85 1018.9
20260903230533 66 0.0 2.0 0.00 0.00 0.00 84 1019.1
20260903225530 66 180 2.0 4.0 0.00 0.00 0.00 83 1019.2
20260903224528 66 176 1.0 4.0 0.00 0.00 0.00 83 1019.3
20260903223526 66 178 1.0 4.0 0.00 0.00 0.00 84 1019.4
20260903222524 66 180 2.0 4.0 0.00 0.00 0.00 84 1019.3
20260903221543 66 180 1.0 2.0 0.00 0.00 0.00 85 1019.4
20260903220540 66 180 1.0 2.0 0.00 0.00 0.00 84 1019.3
20260903215518 66 172 1.0 2.0 0.00 0.00 0.00 84 1019.2
20260903214516 66 176 1.0 2.0 0.00 0.00 0.00 84 1019.4
20260903213634 66 176 1.0 2.0 0.00 0.00 0.00 83 1019.4
20260903212612 66 180 1.0 2.0 0.00 0.00 0.00 83 1019.5
20260903211610 66 184 1.0 4.0 0.00 0.00 0.00 84 1019.5
20260903210608 66 180 1.0 2.0 0.00 0.00 0.00 85 1019.3
20260903205606 65 177 1.0 4.0 0.00 0.00 0.00 86 1019.1
20260903204604 64 172 1.0 2.0 0.00 0.00 0.00 89 1019.0
20260903203602 64 158 1.0 2.0 0.00 0.00 0.00 89 1019.0
20260903202620 64 158 0.0 2.0 0.00 0.00 0.00 89 1019.1
20260903201558 64 158 0.0 2.0 0.00 0.00 0.00 89 1019.2
20260903200556 64 158 0.0 2.0 0.00 0.00 0.00 89 1019.1
20260903195554 64 0.0 0.0 0.00 0.00 0.00 89 1019.2
20260903194552 64 158 0.0 2.0 0.00 0.00 0.00 90 1019.3
20260903193610 64 158 0.0 2.0 0.00 0.00 0.00 90 1019.2
20260903192548 64 158 0.0 2.0 0.00 0.00 0.00 89 1019.3
20260903191546 65 158 1.0 2.0 0.00 0.00 0.00 89 1019.3
20260903190544 65 33 1.0 2.0 0.00 0.00 0.00 89 1019.4
20260903185542 65 330 1.0 4.0 0.00 0.00 0.00 89 1019.5
20260903184545 65 315 1.0 2.0 0.00 0.00 0.00 89 1019.4
20260903183538 65 315 1.0 2.0 0.00 0.00 0.00 89 1019.4
20260903182536 65 326 0.0 2.0 0.00 0.00 0.00 89 1019.3
20260903181534 65 315 0.0 2.0 0.00 0.00 0.00 89 1019.1
20260903180532 65 324 1.0 2.0 0.00 0.00 0.00 89 1019.1
20260903175530 65 338 0.0 2.0 0.00 0.00 0.00 89 1019.1
20260903174528 65 0.0 2.0 0.00 0.00 0.00 89 1019.1
20260903173526 65 336 1.0 4.0 0.00 0.00 0.00 89 1019.2
20260903172543 65 315 0.0 2.0 0.00 0.00 0.00 90 1020.4
20260903171522 0 0.0 0.0 0.00 0.00 0.00 1022.8
20260903170519 65 338 2.0 2.0 0.00 0.00 0.00 88 1019.1
20260903165538 66 326 1.0 2.0 0.00 0.00 0.00 87 1019.1
20260903164515 66 315 0.0 2.0 0.00 0.00 0.00 86 1019.1
20260903163613 67 315 0.0 2.0 0.00 0.00 0.00 85 1019.1
20260903162611 68 315 1.0 2.0 0.00 0.00 0.00 83 1019.4
20260903161630 67 0.0 2.0 0.00 0.00 0.00 87 1019.3
20260903160608 66 315 1.0 2.0 0.00 0.00 0.00 89 1019.3
20260903155605 65 315 1.0 4.0 0.00 0.00 0.00 89 1019.1
20260903154603 65 315 2.0 4.0 0.00 0.00 0.00 90 1019.2
20260903153602 65 315 2.0 2.0 0.00 0.00 0.00 90 1019.2
20260903152600 65 315 2.0 4.0 0.00 0.00 0.00 90 1019.4
20260903151557 64 315 1.0 4.0 0.00 0.00 0.00 90 1019.4
20260903150555 64 338 2.0 4.0 0.00 0.00 0.00 89 1020.8
20260903145554 65 315 1.0 2.0 0.00 0.00 0.00 88 1021.4
20260903144612 65 315 1.0 2.0 0.00 0.00 0.00 88 1020.7
20260903143549 64 315 2.0 2.0 0.00 0.00 0.00 89 1022.1
20260903142607 64 315 2.0 2.0 0.00 0.00 0.00 89 1019.6
20260903141545 64 315 2.0 4.0 0.00 0.00 0.00 88 1019.5
20260903140604 64 315 2.0 4.0 0.00 0.00 0.00 89 1019.5
20260903135541 64 315 1.0 4.0 0.00 0.00 0.00 89 1019.4
20260903134540 64 318 2.0 4.0 0.00 0.00 0.00 89 1019.5
20260903133538 64 315 2.0 6.0 0.00 0.00 0.00 89 1019.4
20260903132535 64 315 2.0 6.0 0.00 0.00 0.00 88 1019.5
20260903131533 64 315 2.0 6.0 0.00 0.00 0.00 88 1019.5
20260903130531 64 320 2.0 7.0 0.00 0.00 0.00 88 1019.5
20260903125559 64 321 3.0 7.0 0.00 0.00 0.00 88 1019.4
20260903124557 65 319 1.0 4.0 0.00 0.00 0.00 88 1019.3
20260903123555 65 315 2.0 6.0 0.00 0.00 0.00 86 1019.2
20260903122553 66 311 2.0 8.0 0.00 0.00 0.00 82 1019.2
20260903121611 66 315 1.0 6.0 0.00 0.00 0.00 82 1019.2
20260903120549 66 326 1.0 6.0 0.00 0.00 0.00 82 1019.2
20260903115547 66 315 1.0 4.0 0.00 0.00 0.00 81 1019.0
20260903114545 66 315 3.0 7.0 0.00 0.00 0.00 80 1019.0
20260903113723 68 301 5.0 11.0 0.00 0.00 0.00 74 1019.2
20260903112541 69 302 5.0 9.0 0.00 0.00 0.00 69 1019.0
20260903111539 69 315 4.0 8.0 0.00 0.00 0.00 69 1019.1
20260903110537 69 315 3.0 6.0 0.00 0.00 0.00 69 1018.9
20260903105535 69 319 1.0 7.0 0.00 0.00 0.00 69 1018.9
20260903104533 68 322 2.0 4.0 0.00 0.00 0.00 69 1019.0
20260903103531 68 324 2.0 7.0 0.00 0.00 0.00 68 1019.3
20260903102529 69 315 2.0 6.0 0.00 0.00 0.00 67 1019.3
20260903101527 68 319 1.0 4.0 0.00 0.00 0.00 68 1019.4
20260903100525 68 308 4.0 9.0 0.00 0.00 0.00 67 1019.3
20260903095523 69 338 3.0 6.0 0.00 0.00 0.00 67 1019.2
20260903094521 68 325 3.0 7.0 0.00 0.00 0.00 67 1019.2
20260903093519 68 333 3.0 4.0 0.00 0.00 0.00 68 1019.2
20260903092517 67 338 4.0 13.0 0.00 0.00 0.00 69 1019.3
20260903091515 67 338 2.0 8.0 0.00 0.00 0.00 70 1019.1
20260903090613 66 338 2.0 6.0 0.00 0.00 0.00 70 1019.2
20260903085611 65 338 3.0 4.0 0.00 0.00 0.00 71 1019.5
20260903084608 65 338 2.0 4.0 0.00 0.00 0.00 71 1019.6
20260903083607 64 338 2.0 6.0 0.00 0.00 0.00 72 1019.7
20260903082605 64 338 2.0 4.0 0.00 0.00 0.00 72 1019.6
20260903081603 64 338 2.0 6.0 0.00 0.00 0.00 72 1019.9
20260903080621 64 338 2.0 4.0 0.00 0.00 0.00 73 1019.9
20260903075619 64 338 2.0 4.0 0.00 0.00 0.00 74 1021.3
20260903074556 63 338 2.0 4.0 0.00 0.00 0.00 74 1020.1
20260903073555 63 338 2.0 4.0 0.00 0.00 0.00 75 1020.3
20260903072553 62 338 2.0 7.0 0.00 0.00 0.00 75 1020.2
20260903071551 62 326 1.0 4.0 0.00 0.00 0.00 76 1020.3
20260903070548 62 338 2.0 2.0 0.00 0.00 0.00 76 1020.5
20260903065547 61 338 2.0 4.0 0.00 0.00 0.00 76 1020.3
20260903064545 61 338 1.0 4.0 0.00 0.00 0.00 76 1020.1
20260903063603 61 338 1.0 2.0 0.00 0.00 0.00 77 1020.1
20260903062540 60 338 1.0 2.0 0.00 0.00 0.00 78 1020.2
20260903061538 60 338 1.0 2.0 0.00 0.00 0.00 78 1020.2
20260903060537 60 338 1.0 4.0 0.00 0.00 0.00 79 1020.4
20260903055555 60 338 0.0 2.0 0.00 0.00 0.00 80 1020.4
20260903054533 59 338 1.0 4.0 0.00 0.00 0.00 81 1020.2
20260903053530 59 338 0.0 2.0 0.00 0.00 0.00 81 1020.3
20260903052548 59 0.0 2.0 0.00 0.00 0.00 82 1020.7
20260903051526 58 338 1.0 2.0 0.00 0.00 0.00 83 1021.4
20260903050545 58 338 1.0 2.0 0.00 0.00 0.00 83 1020.7
20260903045522 58 338 1.0 2.0 0.00 0.00 0.00 83 1020.8
20260903044540 58 338 0.0 2.0 0.00 0.00 0.00 83 1020.7
20260903043518 58 0.0 2.0 0.00 0.00 0.00 83 1020.8
20260903042516 57 338 1.0 2.0 0.00 0.00 0.00 84 1022.9
20260903041614 57 338 2.0 2.0 0.00 0.00 0.00 85 1020.9
20260903040612 57 338 1.0 2.0 0.00 0.00 0.00 85 1020.8
20260903035610 57 338 1.0 2.0 0.00 0.00 0.00 85 1020.8
20260903034608 57 338 1.0 2.0 0.00 0.00 0.00 85 1022.8
20260903033606 56 0.0 2.0 0.00 0.00 0.00 86 1021.0
20260903032604 56 338 1.0 4.0 0.00 0.00 0.00 87 1020.9
20260903031602 0 0.0 0.0 0.00 0.00 0.00 1025.2
20260903030600 56 338 1.0 2.0 0.00 0.00 0.00 86 1020.9
20260903025638 56 338 0.0 2.0 0.00 0.00 0.00 86 1021.1
20260903024556 0 0.0 0.0 0.00 0.00 0.00 1025.4
20260903023554 56 338 1.0 2.0 0.00 0.00 0.00 86 1021.2
20260903022552 56 338 1.0 4.0 0.00 0.00 0.00 87 1021.3
20260903021610 56 338 0.0 2.0 0.00 0.00 0.00 87 1021.5
20260903020548 56 0.0 2.0 0.00 0.00 0.00 87 1021.7
20260903015546 56 338 1.0 2.0 0.00 0.00 0.00 87 1025.1
20260903014544 0 0.0 0.0 0.00 0.00 0.00 1025.7
20260903013542 0 0.0 0.0 0.00 0.00 0.00 1025.7
20260903012540 0 0.0 0.0 0.00 0.00 0.00 1025.9
20260903011538 57 338 1.0 2.0 0.00 0.00 0.00 86 1023.8
20260903010536 57 338 1.0 2.0 0.00 0.00 0.00 86 1023.2